Tracking 24122 objects as of 9-Dec-2021
HD Live streaming from Space Station
objects crossing your sky now

OPS 4682 DEB

Track OPS 4682 DEB now!
10-day predictions


NORAD ID: 38396
Int'l Code: 1965-027CZ
Perigee: 1,253.3 km
Apogee: 1,309.4 km
Inclination: 90.3 °
Period: 111.0 minutes
Semi major axis: 7652 km
RCS: 0.0099 m2 (small)
Launch date: April 3, 1965
Source: United States (US)
Launch site: AIR FORCE WESTERN TEST RANGE (AFWTR)

Note: This is SATELLITE DEBRIS
aabbcc
Your satellite tracking list
Your tracking list is empty




NASA's NSSDC Master Catalog

Two Line Element Set (TLE):
1 38396U 65027CZ  21342.42113255  .00000397  00000-0  13494-2 0  9996
2 38396  90.2702 332.9127 0036633 118.7898 241.6910 12.96914332449023
Source of the keplerian elements: AFSPC